Find Kosmos-1709

NORAD ID: 16368 Int'l Des: 1985-116 Owner: VMF Country: SU operational
LEOCIRCULARPOLAR

リアルタイム位置

3D地球を読み込み中...

Kosmos-1709について

説明を読み込み中...

次回通過

Passes for default location (London). Set your location on the main map for personalized predictions.

高度履歴

Loading altitude history...

軌道要素

1 16368U 85116A 26106.87328742 .00000080 00000-0 68392-4 0 9991
2 16368 82.9463 158.5143 0033467 296.3540 237.8601 13.74713295 22404
Epoch: Apr 16, 2026 • Age: 5 hours

現在のステータス

高度 1018.2 km
速度 7.34 km/s
衛星直下点 63.26°N, 90.25°E
打ち上げ日 Dec 19, 1985
運用期間 40.3 years
タイプ other

技術仕様

分類 Payload
質量 800.00 kg
乾燥質量 800.00 kg
総質量 800.00 kg
長さ 5.00 m
直径 2.10 m
スパン 17.00 m
形状 Cyl + Ant
製造者 OAZ
バスタイプ KAUR-1 11F627
フェーズステータス In Orbit
所有者/国 VMF/SU

Most Searched